Regional Weather Roundup
Issued by NWS

Home | Current Version | Previous Version | Graphics & Text | Print | Product List | Glossary Off
Versions: 1 2 3 4 5 6 7 8 9 10 11 12 13 14 15 16 17 18 19 20 21 22 23 24 25 26 27 28 29 30 31 32 33 34 35 36 37 38 39 40 41 42 43 44 45 46 47 48 49 50

000
ASUS43 KTOP 140808
RWRKS

WEATHER ROUNDUP FOR KANSAS
NATIONAL WEATHER SERVICE GOODLAND KS
200 AM CST THU DEC 14 2017

NOTE:  "FAIR" INDICATES FEW OR NO CLOUDS BELOW 12,000 FEET WITH NO
SIGNIFICANT WEATHER AND/OR OBSTRUCTIONS TO VISIBILITY.

KSZ001>006-013>018-027>032-041>047-140900-
NORTHWEST KANSAS

CITY           SKY/WX    TMP DP  RH WIND       PRES   REMARKS
GOODLAND       CLOUDY    37  19  48 N9        30.10S
HILL CITY      CLOUDY    39  23  52 NW12      30.10R WCI  32
RUSSELL        CLOUDY    36  25  64 N10       30.05S WCI  28
$$

KSZ061>065-074>080-084>089-140900-
SOUTHWEST KANSAS

CITY           SKY/WX    TMP DP  RH WIND       PRES   REMARKS
DODGE CITY     CLOUDY    40  20  44 N13       30.07R WCI  32
ELKHART        CLOUDY    39  21  47 N6        30.09S
GARDEN CITY    CLOUDY    39  19  44 N12       30.09R WCI  32
GREAT BEND     CLOUDY    37  22  54 N13       30.06R WCI  29
LIBERAL        PTCLDY    37  18  46 N6        30.09R
PRATT          CLOUDY    39  21  47 N15       30.05R WCI  31
$$

KSZ066>073-081>083-090>101-140900-
SOUTHEAST KANSAS

CITY           SKY/WX    TMP DP  RH WIND       PRES   REMARKS
CHANUTE        CLEAR     34  26  72 N7        30.00R
COFFEYVILLE    CLEAR     37  28  70 NE9       29.99R
HUTCHINSON     CLEAR     37  25  61 N13       30.04R WCI  29
MEDICINE LODGE   N/A     42  24  49 NW7       30.04R
NEWTON         CLEAR     29  23  78 N8        30.03R
PARSONS        CLEAR     39  28  64 N7        29.99R
WICHITA INTL   PTCLDY    37  24  59 N9        30.03R
WICHITA JABRA  CLEAR     30  24  78 N8        30.03R
WICHITA MCCONL CLEAR     34  23  63 N7        30.02R
WINFIELD       CLOUDY    38  26  62 N8        30.02R
$$

KSZ007>012-019>026-033>040-048>060-102>105-140900-
NORTHEAST KANSAS

CITY           SKY/WX    TMP DP  RH WIND       PRES   REMARKS
CONCORDIA      CLOUDY    31  26  82 W6        30.05R
EMPORIA        CLEAR     30  23  75 NW6       30.02R
LAWRENCE       CLOUDY    29  25  85 NW7       29.99R
MANHATTAN      CLOUDY    33  25  72 NW3       30.04R
MARYSVILLE     CLOUDY    34  28  80 NW9       30.02S
OLATHE IND     CLOUDY    34  27  75 NW6       29.98R
OLATHE EXE     CLOUDY    35  27  72 NW6       29.96R
SALINA         CLEAR     30  23  75 NW6       30.06R
TOPEKA BILLARD CLOUDY    36  28  73 NW8       30.00R
TOPEKA FORBES  CLOUDY    35  27  72 NW10      29.99R WCI  27
$$



USA.gov is the U.S. government's official web portal to all federal, state and local government web resources and services.